Weather History for Bennington, VT

Change the Weather History Date:

Wednesday, February 20, 2013

  Actual Average Record
Temperature  
Mean Temperature 28 °F 26 °F  
Max Temperature 32 °F 36 °F 44 °F (2014)
Min Temperature 23 °F 16 °F 26 °F (2014)
Degree Days  
Heating Degree Days 37 39  
Month to date heating degree days 832 818  
Since 1 July heating degree days 4520 4949  
Cooling Degree Days 0 0  
Month to date cooling degree days 0 0  
Year to date cooling degree days 0 0  
Moisture  
Dew Point 17 °F    
Average Humidity 69    
Maximum Humidity 92    
Minimum Humidity 46    
Precipitation  
Precipitation 0.01 in 0.09 in 0.13 in (2014)
Month to date precipitation 0.74 1.49  
Year to date precipitation 2.19 4.24  
Sea Level Pressure  
Sea Level Pressure 29.71 in    
Wind  
Wind Speed 10 mph (West)    
Max Wind Speed 21 mph    
Max Gust Speed 31 mph    
Visibility 8 miles    
Events Snow    
T = Trace of Precipitation, MM = Missing Value Source: NWS Daily Summary

Daily Weather History Graph

Daily Weather History Graph

Search for Another Location

Airport:

Trip Planner

Search our weather history database for the weather conditions in past years. The results will help you decide how hot, cold, wet, or windy it might be!

Date:

Astronomy

Feb. 20, 2013 Rise Set
Actual Time 6:42 AM EST 5:31 PM EST
Civil Twilight 6:13 AM EST 6:00 PM EST
Nautical Twilight 5:40 AM EST 6:33 PM EST
Astronomical Twilight 5:08 AM EST 7:05 PM EST
Moon 12:45 PM EST (2/20) 3:05 AM EST (2/20)
Length of Visible Light 11h 46m
Length of Day
10h 48m
Waxing Gibbous, 76% of the Moon is Illuminated
Feb 20
Waxing Gibbous
Feb 25
Full
Mar 4
Last Quarter
Mar 11
New
Mar 19
First Quarter

Hourly Weather History & Observations

Time (EST) Temp. Windchill Dew Point Humidity Pressure Visibility Wind Dir Wind Speed Gust Speed Precip Events Conditions
12:13 AM 32.0 °F 21.6 °F 28.4 °F 87% 29.62 in 1.0 mi WNW 15.0 mph 27.6 mph 0.00 in Snow Light Snow
12:31 AM 30.2 °F 20.8 °F 26.6 °F 86% 29.61 in 2.0 mi WNW 11.5 mph 19.6 mph 0.00 in Snow Light Snow
12:37 AM 30.2 °F 21.3 °F 26.6 °F 86% 29.62 in 3.0 mi NW 10.4 mph 21.9 mph 0.00 in Snow Light Snow
12:50 AM 30.2 °F 24.3 °F 28.4 °F 93% 29.62 in 4.0 mi WNW 5.8 mph - 0.00 in Snow Light Snow
12:54 AM 30.9 °F 25.2 °F 28.0 °F 89% 29.64 in 4.0 mi Variable 5.8 mph - 0.00 in Snow Light Snow
1:01 AM 30.2 °F - 28.4 °F 93% 29.62 in 1.8 mi Calm Calm - 0.00 in Snow Light Snow
1:11 AM 30.2 °F 25.4 °F 26.6 °F 86% 29.63 in 3.0 mi South 4.6 mph - 0.00 in Snow Light Snow
1:19 AM 30.2 °F 24.3 °F 24.8 °F 80% 29.63 in 7.0 mi Variable 5.8 mph - 0.00 in Snow Light Snow
1:54 AM 30.0 °F 26.5 °F 24.1 °F 79% 29.65 in 5.0 mi Variable 3.5 mph - 0.01 in Snow Light Snow
2:54 AM 28.9 °F 19.8 °F 21.0 °F 72% 29.67 in 6.0 mi West 10.4 mph 21.9 mph 0.00 in Snow Light Snow
3:54 AM 27.0 °F 15.2 °F 17.1 °F 66% 29.69 in 10.0 mi WNW 15.0 mph 21.9 mph 0.00 in   Overcast
4:54 AM 26.1 °F 16.8 °F 16.0 °F 66% 29.69 in 10.0 mi WNW 9.2 mph 17.3 mph N/A   Overcast
5:52 AM 26.6 °F 20.0 °F 17.6 °F 69% 29.67 in 6.0 mi Variable 5.8 mph 21.9 mph 0.00 in Snow Light Snow
5:54 AM 26.1 °F 18.4 °F 17.1 °F 69% 29.69 in 6.0 mi Variable 6.9 mph 21.9 mph 0.00 in Snow Light Snow
6:54 AM 25.0 °F 14.8 °F 17.1 °F 72% 29.69 in 10.0 mi West 10.4 mph 20.7 mph 0.00 in   Overcast
8:10 AM 24.8 °F 16.9 °F 15.8 °F 69% 29.69 in 10.0 mi Variable 6.9 mph 16.1 mph N/A   Overcast
8:54 AM 25.0 °F 15.5 °F 16.0 °F 69% 29.72 in 10.0 mi WNW 9.2 mph 19.6 mph N/A   Overcast
9:54 AM 25.0 °F 15.5 °F 15.1 °F 66% 29.72 in 10.0 mi West 9.2 mph 24.2 mph N/A   Mostly Cloudy
10:54 AM 27.0 °F 15.2 °F 12.9 °F 56% 29.72 in 10.0 mi West 15.0 mph 31.1 mph N/A   Mostly Cloudy
11:54 AM 27.0 °F 14.7 °F 10.0 °F 49% 29.71 in 10.0 mi West 16.1 mph 23.0 mph N/A   Overcast
12:54 PM 26.1 °F 18.4 °F 10.9 °F 53% 29.71 in 10.0 mi Variable 6.9 mph 25.3 mph N/A   Overcast
1:54 PM 26.1 °F 14.0 °F 9.0 °F 49% 29.71 in 10.0 mi West 15.0 mph 25.3 mph N/A   Overcast
2:54 PM 26.1 °F 15.6 °F 10.0 °F 51% 29.73 in 10.0 mi West 11.5 mph 23.0 mph N/A   Overcast
3:54 PM 26.1 °F 15.0 °F 10.0 °F 51% 29.75 in 10.0 mi West 12.7 mph 24.2 mph N/A   Overcast
4:54 PM 25.0 °F 12.6 °F 9.0 °F 51% 29.77 in 10.0 mi West 15.0 mph 19.6 mph N/A   Overcast
5:54 PM 24.1 °F 13.7 °F 10.0 °F 55% 29.80 in 10.0 mi West 10.4 mph 20.7 mph N/A   Overcast
6:54 PM 23.0 °F 11.1 °F 10.9 °F 60% 29.83 in 10.0 mi West 12.7 mph 21.9 mph N/A   Overcast
7:54 PM 23.0 °F 15.8 °F 12.0 °F 63% 29.83 in 10.0 mi Variable 5.8 mph - N/A   Overcast
8:02 PM 23.0 °F 12.4 °F 12.2 °F 63% 29.79 in 10.0 mi WSW 10.4 mph 23.0 mph N/A   Overcast
8:54 PM 23.0 °F 11.1 °F 12.9 °F 65% 29.83 in 10.0 mi West 12.7 mph 19.6 mph N/A   Overcast
10:54 PM 23.0 °F 14.7 °F 14.0 °F 68% 29.85 in 10.0 mi West 6.9 mph - N/A   Overcast
11:50 PM 23.0 °F 15.8 °F 12.2 °F 63% 29.83 in 10.0 mi Variable 5.8 mph - N/A   Overcast
11:54 PM 23.0 °F 14.7 °F 12.9 °F 65% 29.86 in 10.0 mi Variable 6.9 mph - N/A   Overcast